N805AB KMCO-KORL

Flight info

Callsign N805AB
Flight time 0h -4m
Altitude VFR
Route
Aircraft P180/L-DOV/C

Departure

Time 2026-05-05 01:42
Airport Orlando International Airport (KMCO)

Arrival

Time 2026-05-05 01:37
Airport Orlando Executive Airport (KORL)
Time Latitude Longitude Altitude Speed Heading
2026-05-05 01:37 28.42316 -81.32935 95 ft 20 kts 180°
2026-05-05 01:37 28.42246 -81.32935 97 ft 1 kts 180°
2026-05-05 01:38 28.42226 -81.32935 97 ft 5 kts 180°
2026-05-05 01:38 28.42179 -81.32935 97 ft 9 kts 180°
2026-05-05 01:38 28.42123 -81.32932 97 ft 7 kts 175°
2026-05-05 01:38 28.42107 -81.32930 97 ft 4 kts 175°
2026-05-05 01:39 28.42065 -81.32926 97 ft 9 kts 175°
2026-05-05 01:39 28.41990 -81.32919 98 ft 13 kts 175°
2026-05-05 01:39 28.41893 -81.32909 102 ft 15 kts 181°
2026-05-05 01:39 28.41783 -81.32906 104 ft 17 kts 180°
2026-05-05 01:40 28.41664 -81.32908 103 ft 13 kts 180°
2026-05-05 01:40 28.41570 -81.32909 102 ft 16 kts 181°
2026-05-05 01:40 28.41467 -81.32898 103 ft 8 kts 88°
2026-05-05 01:40 28.41525 -81.32877 102 ft 11 kts 48°
2026-05-05 01:41 28.41536 -81.32781 103 ft 14 kts 89°
2026-05-05 01:41 28.41567 -81.32682 103 ft 15 kts 20°
2026-05-05 01:41 28.41868 -81.32666 100 ft 92 kts 360°
2026-05-05 01:41 28.42726 -81.32682 237 ft 144 kts
2026-05-05 01:42 28.43810 -81.32681 552 ft 165 kts
2026-05-05 01:42 28.44971 -81.32785 831 ft 169 kts 345°
2026-05-05 01:42 28.45871 -81.33690 955 ft 186 kts 300°
2026-05-05 01:42 28.46139 -81.35128 1134 ft 191 kts 270°
2026-05-05 01:43 28.46051 -81.36655 1263 ft 196 kts 264°
2026-05-05 01:43 28.45934 -81.38171 1422 ft 193 kts 264°
2026-05-05 01:43 28.45791 -81.39695 1362 ft 196 kts 263°
2026-05-05 01:43 28.45639 -81.41235 1362 ft 195 kts 262°
2026-05-05 01:44 28.45226 -81.42680 1326 ft 191 kts 243°
2026-05-05 01:44 28.44686 -81.44049 1392 ft 188 kts 244°
2026-05-05 01:44 28.44153 -81.45398 1443 ft 186 kts 243°
2026-05-05 01:44 28.43624 -81.46729 1533 ft 185 kts 243°
2026-05-05 01:45 28.43074 -81.48047 1603 ft 186 kts 241°
2026-05-05 01:45 28.42517 -81.49432 1600 ft 199 kts 243°
2026-05-05 01:45 28.41938 -81.50886 1582 ft 203 kts 243°
2026-05-05 01:45 28.41360 -81.52358 1529 ft 206 kts 243°
2026-05-05 01:46 28.40786 -81.53822 1525 ft 206 kts 243°
2026-05-05 01:46 28.40197 -81.55296 1500 ft 205 kts 243°
2026-05-05 01:46 28.39643 -81.56781 1569 ft 204 kts 252°
2026-05-05 01:46 28.39780 -81.58367 1573 ft 205 kts 297°
2026-05-05 01:47 28.40760 -81.59464 1557 ft 198 kts 338°
2026-05-05 01:47 28.42053 -81.59684 1596 ft 183 kts 15°
2026-05-05 01:47 28.43174 -81.59074 1634 ft 180 kts 35°
2026-05-05 01:47 28.44287 -81.58378 1550 ft 185 kts 33°
2026-05-05 01:48 28.45432 -81.57666 1429 ft 189 kts 34°
2026-05-05 01:48 28.46558 -81.56914 1410 ft 185 kts 36°
2026-05-05 01:48 28.47652 -81.56159 1422 ft 184 kts 36°
2026-05-05 01:48 28.48722 -81.55386 1484 ft 180 kts 38°
2026-05-05 01:49 28.49463 -81.54312 1455 ft 174 kts 75°
2026-05-05 01:49 28.49476 -81.52951 1472 ft 173 kts 95°
2026-05-05 01:49 28.49372 -81.51605 1577 ft 169 kts 95°
2026-05-05 01:49 28.49273 -81.50285 1628 ft 170 kts 95°
2026-05-05 01:50 28.49182 -81.48935 1605 ft 172 kts 92°
2026-05-05 01:50 28.49255 -81.47590 1650 ft 168 kts 85°
2026-05-05 01:50 28.49428 -81.46434 1600 ft 130 kts 76°
2026-05-05 01:50 28.49773 -81.45564 1448 ft 113 kts 65°
2026-05-05 01:51 28.50118 -81.44814 1349 ft 102 kts 69°
2026-05-05 01:51 28.50420 -81.44089 1296 ft 101 kts 69°
2026-05-05 01:51 28.50730 -81.43291 1252 ft 113 kts 70°
2026-05-05 01:51 28.51012 -81.42496 1125 ft 106 kts 72°
2026-05-05 01:52 28.51300 -81.41737 1080 ft 110 kts 70°
2026-05-05 01:52 28.51615 -81.40888 1120 ft 121 kts 71°
2026-05-05 01:52 28.51956 -81.39984 1090 ft 128 kts 68°
2026-05-05 01:52 28.52319 -81.39046 1052 ft 131 kts 69°
2026-05-05 01:53 28.52650 -81.38136 930 ft 121 kts 69°
2026-05-05 01:53 28.52984 -81.37284 798 ft 114 kts 68°
2026-05-05 01:53 28.53299 -81.36513 665 ft 102 kts 68°
2026-05-05 01:53 28.53564 -81.35788 532 ft 100 kts 68°
2026-05-05 01:54 28.53845 -81.35059 403 ft 102 kts 68°
2026-05-05 01:54 28.54030 -81.34578 298 ft 98 kts 69°
2026-05-05 01:54 28.54376 -81.33683 118 ft 86 kts 68°
2026-05-05 01:54 28.54519 -81.33305 112 ft 71 kts 66°
2026-05-05 01:55 28.54798 -81.32579 276 ft 132 kts 68°
2026-05-05 01:55 28.55155 -81.31629 690 ft 123 kts 69°
2026-05-05 01:55 28.55484 -81.30784 933 ft 117 kts 67°
2026-05-05 01:55 28.56485 -81.30106 1022 ft 152 kts
2026-05-05 01:56 28.57452 -81.30742 978 ft 177 kts 309°
2026-05-05 01:56 28.57775 -81.32000 981 ft 161 kts 266°
2026-05-05 01:56 28.57688 -81.32808 1080 ft 143 kts 260°
2026-05-05 01:56 28.57541 -81.33885 1082 ft 136 kts 260°
2026-05-05 01:57 28.57404 -81.34950 1038 ft 132 kts 259°
2026-05-05 01:57 28.57217 -81.35961 1021 ft 132 kts 252°
2026-05-05 01:57 28.56939 -81.36894 1040 ft 118 kts 246°
2026-05-05 01:57 28.56651 -81.37741 998 ft 112 kts 245°
2026-05-05 01:58 28.56356 -81.38551 993 ft 111 kts 242°
2026-05-05 01:58 28.56026 -81.39378 1108 ft 116 kts 241°
2026-05-05 01:58 28.55533 -81.40097 1203 ft 118 kts 202°
2026-05-05 01:58 28.54739 -81.40175 1251 ft 114 kts 160°
2026-05-05 01:59 28.53989 -81.39888 1300 ft 114 kts 149°
2026-05-05 01:59 28.53289 -81.39458 1298 ft 113 kts 135°
2026-05-05 01:59 28.52902 -81.38729 1279 ft 109 kts 99°
2026-05-05 01:59 28.52875 -81.37869 1133 ft 105 kts 86°
2026-05-05 02:00 28.53051 -81.37136 937 ft 94 kts 69°
2026-05-05 02:00 28.53310 -81.36479 727 ft 91 kts 69°
2026-05-05 02:00 28.53565 -81.35773 598 ft 99 kts 67°
2026-05-05 02:00 28.53855 -81.35047 414 ft 104 kts 69°
2026-05-05 02:01 28.54150 -81.34275 214 ft 108 kts 69°
2026-05-05 02:01 28.54430 -81.33546 110 ft 90 kts 69°
2026-05-05 02:01 28.54634 -81.33003 113 ft 55 kts 66°
2026-05-05 02:01 28.54751 -81.32791 110 ft 22 kts 37°
2026-05-05 02:02 28.54840 -81.32720 110 ft 18 kts 13°
2026-05-05 02:02 28.54971 -81.32716 111 ft 20 kts 358°
2026-05-05 02:02 28.55084 -81.32721 114 ft 0 kts 357°